Wind_Speed
49 50 51 49 46 44 46 50 52 52 52 54 54 54 54 53 52 48 46 45 46 50 52 50 49 49 47 45 41 39 37 37 35 32 30 30 29 27 25 24 24 25 25 26 28 31 35 37 37 37 38 40 40 41 41 40 38 37 37 36 34 33 33 32 32 33 35 35 35 35 35 34 35 37 39 39 38 38 37 37 38 38 37 38 38 38
49 52 51 48 46 48 50 51 52 52 53 54 55 55 55 55 53 49 47 46 47 52 53 50 50 49 47 45 42 40 37 35 34 34 32 29 26 23 21 22 23 24 25 27 29 31 33 34 34 34 34 36 38 40 41 40 40 39 38 37 35 35 34 33 32 33 33 34 35 36 36 36 37 38 38 37 37 37 37 37 36 35 36 37 37 38
51 53 51 47 48 50 51 51 52 53 53 54 55 56 56 55 54 52 50 48 48 51 52 51 52 50 48 47 45 41 36 34 33 33 32 28 25 21 21 23 25 24 25 28 30 30 31 31 31 32 33 34 35 37 38 39 40 39 38 37 37 37 36 35 35 35 35 35 35 36 36 37 38 37 36 37 37 36 36 35 34 35 36 38 39 40
53 55 52 50 51 52 51 52 53 54 54 54 55 56 57 55 55 56 53 51 50 51 52 52 52 51 51 49 49 44 35 31 31 31 30 29 27 23 21 24 26 25 25 27 28 28 29 30 29 30 32 34 35 35 37 38 38 38 38 37 38 38 38 39 39 39 39 38 37 36 36 37 37 36 36 37 36 35 35 35 35 36 38 40 41 41
54 55 54 52 53 53 53 55 55 56 55 55 54 56 56 55 56 57 56 55 54 53 52 52 52 52 52 50 49 46 37 30 30 30 30 29 28 24 22 24 26 25 25 27 26 26 28 29 28 28 28 30 32 34 34 36 36 35 35 36 37 39 40 41 41 41 41 41 40 38 38 37 37 37 37 37 35 36 37 38 39 40 42 43 42 41
56 56 54 53 54 54 55 56 56 56 57 57 56 55 54 55 56 56 57 57 57 55 53 52 53 51 50 50 49 48 43 36 34 33 30 27 28 27 25 26 26 25 26 27 26 25 26 28 28 28 27 28 29 32 33 34 34 34 34 34 35 37 39 40 41 42 42 42 41 41 40 39 39 38 38 37 37 39 40 41 42 43 44 44 43 42
57 56 54 53 55 56 57 57 56 56 58 60 57 54 53 55 56 56 56 57 57 57 55 53 54 52 51 52 50 48 46 43 41 37 31 29 29 29 29 29 28 28 29 28 27 26 26 28 29 29 29 29 30 31 33 34 34 34 34 35 35 36 38 39 41 42 43 43 43 44 43 43 42 41 39 39 40 42 42 43 44 45 45 45 45 44
56 55 54 53 54 57 57 55 52 54 58 60 57 54 54 54 54 55 56 57 57 57 57 56 56 56 54 53 52 49 47 46 43 38 36 35 33 32 33 33 32 33 33 33 31 31 31 29 30 31 30 30 31 32 34 35 36 35 35 35 36 37 38 39 41 42 43 44 45 46 46 46 46 44 43 44 45 45 44 45 45 46 47 46 46 45
53 54 54 54 55 56 55 53 52 54 56 58 57 56 56 54 54 55 55 57 57 58 60 60 58 58 56 54 54 53 50 46 43 40 41 41 39 38 37 36 37 37 37 39 39 38 37 34 32 33 33 32 33 34 35 37 38 38 38 38 38 39 39 40 41 42 42 43 45 47 47 47 47 47 48 48 47 46 46 46 46 47 47 47 47 47
52 53 55 55 55 53 51 52 52 53 54 56 57 58 58 57 56 56 57 57 58 60 62 61 59 57 56 55 55 55 52 47 45 45 45 45 44 44 43 42 42 40 40 44 45 43 43 42 38 37 37 37 37 37 37 38 40 41 41 41 41 41 42 42 42 42 42 42 44 46 47 48 49 50 51 50 49 48 48 48 48 48 48 48 49 49
50 53 54 54 53 51 50 50 50 52 53 54 55 56 57 58 58 59 59 59 60 63 62 61 59 56 57 59 56 54 53 50 49 49 48 49 49 49 50 47 44 41 42 48 49 47 47 47 46 44 43 43 43 43 41 40 41 42 43 43 43 43 44 44 43 43 43 43 44 45 47 49 51 52 53 53 52 51 51 51 51 51 51 51 51 52
49 51 52 52 51 51 50 50 49 50 51 52 53 54 56 58 59 60 61 61 63 63 60 60 60 57 59 62 59 55 54 53 53 52 51 53 53 51 52 50 47 46 47 51 52 51 50 50 49 49 49 50 49 48 47 46 45 45 45 45 45 45 46 46 45 45 45 44 45 46 47 49 51 52 53 53 54 54 54 54 54 54 53 52 52 53
50 50 51 51 50 50 51 51 51 50 49 50 50 52 53 55 56 59 60 61 61 60 58 60 62 62 62 62 60 57 54 52 53 54 55 57 57 55 53 52 52 52 54 56 56 55 54 53 52 52 54 56 55 52 50 50 50 50 50 49 48 47 47 48 48 48 47 47 47 47 48 50 51 52 52 52 54 55 56 56 57 56 55 55 54 53
55 53 52 52 51 51 52 52 51 51 50 49 48 49 50 50 53 55 55 56 58 57 58 60 63 64 63 61 61 58 55 53 53 55 58 59 59 58 57 55 55 56 58 59 59 59 57 57 56 55 55 56 57 56 55 54 55 54 54 55 53 51 50 51 51 51 50 50 50 50 51 52 53 53 53 53 54 55 56 57 58 58 59 58 56 54
62 59 56 56 55 54 54 54 54 55 54 53 52 52 53 52 52 52 50 51 54 56 57 60 63 64 61 60 61 60 58 58 58 59 60 60 59 59 59 58 57 58 60 61 61 62 62 61 59 57 54 53 55 59 60 58 58 59 59 58 58 57 55 54 53 53 53 53 53 53 54 55 56 56 56 55 55 56 57 58 58 59 60 60 58 57
65 65 61 62 63 60 59 60 59 59 59 60 60 61 61 58 56 56 55 55 56 58 60 62 65 64 60 60 61 61 62 61 61 61 60 59 60 60 59 59 60 60 62 63 63 64 65 64 61 59 59 58 58 61 63 60 58 58 58 58 58 58 57 56 56 56 56 56 55 55 55 57 58 58 58 57 57 57 58 58 59 60 61 61 61 60
65 66 64 66 67 66 65 64 64 63 63 64 65 65 63 61 60 62 65 64 63 65 67 67 68 67 64 63 60 59 62 62 61 61 61 61 62 61 60 61 63 63 63 64 66 67 67 67 65 63 64 64 63 63 62 61 58 54 52 52 53 54 55 56 56 56 57 58 59 59 58 59 60 60 61 60 60 59 60 60 60 61 62 62 63 62
64 65 64 66 68 69 69 68 68 68 69 69 68 66 64 63 64 63 64 63 62 64 66 67 68 69 69 68 64 63 65 65 64 63 64 65 63 63 64 63 65 67 66 66 66 67 68 68 67 66 66 66 66 64 62 60 58 54 50 48 48 48 50 53 54 56 58 60 62 64 63 63 63 63 63 63 63 63 63 62 62 62 63 63 64 63
64 66 65 65 67 69 69 69 71 72 72 69 65 63 62 63 64 62 61 61 60 61 64 65 66 68 69 68 66 67 69 71 71 69 66 66 66 67 68 67 67 68 68 68 67 67 68 68 68 66 66 66 66 65 62 58 55 52 49 49 50 50 50 52 56 57 58 60 63 66 68 67 67 67 67 67 66 66 66 65 65 64 64 65 65 65
67 69 68 65 65 68 68 68 70 70 67 64 61 61 60 60 61 61 61 62 61 63 65 66 67 67 65 64 64 67 70 72 73 72 70 71 71 71 70 69 68 66 67 68 68 69 69 69 68 68 68 68 67 66 62 59 55 52 50 51 55 57 54 52 53 54 55 58 60 64 67 69 69 69 70 70 69 68 67 66 66 65 66 66 66 66
67 67 67 64 64 67 68 67 66 64 63 64 64 63 63 62 61 60 61 61 59 60 60 60 62 59 51 50 53 58 65 70 70 71 72 73 74 73 72 71 70 69 69 69 69 70 70 70 70 70 69 68 68 66 64 61 61 60 59 57 59 62 60 57 54 52 52 54 57 60 63 66 68 70 71 71 72 70 68 67 66 66 66 66 66 67
66 63 63 64 66 69 69 67 66 66 66 67 67 67 66 65 62 62 65 65 64 65 65 64 67 65 54 46 47 53 60 64 65 68 71 71 71 70 69 69 70 70 71 72 73 74 74 73 72 70 69 68 67 67 66 65 65 66 66 64 64 65 65 63 60 58 54 53 55 58 61 64 66 68 70 72 73 73 71 69 68 68 69 69 69 68
67 66 66 68 71 71 68 67 69 70 70 70 69 68 66 65 63 65 68 68 67 70 70 71 74 75 68 61 60 64 66 65 65 67 69 70 70 70 70 71 73 76 77 78 78 78 78 77 75 73 71 69 68 68 68 69 69 70 70 69 68 68 68 68 67 65 62 58 57 58 61 65 68 69 69 71 73 74 74 73 72 73 74 73 72 71
66 67 68 69 70 69 67 67 69 70 69 69 69 68 66 65 64 63 64 64 64 66 66 67 71 71 68 64 65 68 70 70 71 71 72 74 76 78 79 79 79 80 80 79 78 77 76 76 76 76 75 74 73 72 72 72 73 75 76 75 74 73 72 73 73 73 71 68 65 62 62 66 70 73 72 72 72 73 74 74 75 76 77 77 76 75
63 64 65 66 67 67 67 66 66 67 67 67 67 66 65 64 62 60 60 61 63 63 60 60 62 60 56 57 59 62 65 68 70 72 75 78 81 83 84 83 81 80 79 79 77 76 75 75 75 75 76 76 75 75 76 77 78 78 79 79 78 77 78 78 79 78 78 76 74 71 68 67 70 74 76 75 75 75 74 74 76 77 79 79 79 78
61 62 61 61 62 64 65 65 65 66 66 66 64 62 60 60 59 59 60 61 63 64 61 61 62 60 57 59 61 62 65 68 70 71 74 76 78 80 81 81 81 81 81 81 80 80 80 80 80 80 81 81 82 83 84 84 84 83 83 84 84 84 84 84 83 82 82 81 79 76 74 72 72 74 76 78 78 78 78 77 78 79 80 80 80 80
62 63 63 63 63 64 65 66 65 64 64 64 62 61 61 61 61 62 64 66 67 69 70 69 70 71 70 70 70 70 70 71 72 73 74 75 77 78 79 80 81 81 82 82 83 83 84 84 84 84 85 86 87 88 88 87 86 85 85 86 87 87 87 86 85 83 83 82 80 78 75 75 75 76 77 78 80 80 80 80 80 81 82 82 81 80
66 67 67 66 66 66 67 67 67 66 66 65 65 65 65 65 65 66 69 70 70 73 76 74 73 75 75 73 75 77 76 76 77 77 77 78 79 80 80 80 80 81 81 81 82 82 82 83 83 83 84 84 84 85 85 84 84 84 84 84 84 85 86 86 85 83 82 82 81 79 76 75 76 78 79 80 82 83 82 81 79 78 80 83 82 80
68 69 68 67 68 68 67 68 67 67 67 66 66 66 66 68 69 70 71 71 71 75 78 76 75 77 77 77 78 79 79 80 80 79 79 80 81 82 82 82 82 82 82 82 83 83 84 84 85 86 87 88 88 88 88 87 86 85 84 83 82 81 81 82 82 81 80 80 80 79 77 76 77 79 81 83 83 84 83 81 78 76 77 80 81 80
69 70 69 69 70 70 69 68 68 68 68 67 67 67 68 70 71 71 71 71 72 75 76 75 76 78 78 78 79 78 78 78 79 79 78 78 78 79 79 80 81 82 82 82 82 82 82 84 85 86 87 89 90 91 91 90 89 88 87 86 84 82 81 80 80 79 78 78 79 79 78 77 78 79 82 84 84 84 84 83 83 82 80 80 82 83
70 71 71 71 73 73 71 70 69 69 69 70 71 70 70 71 70 70 71 71 73 75 76 76 77 77 78 78 77 76 76 75 74 74 73 73 74 74 75 76 76 77 77 78 79 79 80 81 83 84 85 87 89 90 90 90 90 90 91 90 89 88 87 85 83 81 79 78 78 79 79 79 79 79 81 83 85 86 86 85 84 82 80 79 81 83
70 71 71 71 73 74 71 69 69 69 70 72 73 72 72 72 72 72 72 72 72 74 74 75 75 74 75 74 73 73 73 72 72 72 71 71 72 72 73 74 74 75 76 78 80 82 84 84 84 84 85 86 87 88 89 90 90 91 91 91 91 90 88 87 84 82 80 77 75 75 76 77 77 77 78 80 83 85 86 85 82 79 77 77 79 82
69 70 71 71 74 75 72 70 71 72 75 78 75 73 73 73 74 74 72 70 69 70 71 72 73 74 74 75 76 77 78 79 79 78 77 77 77 77 77 77 77 78 80 82 85 87 88 88 86 87 88 89 90 91 91 91 90 89 89 89 90 90 88 86 84 83 81 77 73 70 70 71 72 73 74 76 78 81 83 84 83 80 78 77 78 80
70 72 73 74 77 78 76 75 76 78 82 82 76 74 75 75 75 74 73 72 71 71 72 73 75 77 78 80 82 84 86 87 87 87 86 86 86 86 86 86 86 86 87 88 90 91 91 91 90 90 91 93 94 94 93 92 90 89 88 88 89 90 90 88 87 85 83 81 77 72 68 67 68 69 71 73 75 78 80 82 82 81 79 78 79 80
72 73 75 76 78 79 78 77 78 82 84 81 77 76 77 77 77 76 76 75 75 76 77 78 78 78 79 81 83 85 87 88 89 89 89 91 92 92 93 92 92 92 91 91 91 91 91 91 91 91 92 93 94 94 94 93 91 90 89 90 91 92 92 92 91 90 88 86 84 80 76 73 73 73 74 75 76 77 78 79 80 80 78 77 78 79
73 73 75 76 77 79 79 78 79 82 82 80 79 79 78 77 77 77 76 77 77 78 78 78 78 78 79 80 82 84 85 87 87 87 88 91 93 93 93 93 93 93 93 92 92 91 91 92 92 92 92 92 92 92 93 93 92 92 92 93 94 94 95 95 95 95 94 93 91 89 87 85 83 81 81 81 82 82 81 79 78 78 78 77 78 79
73 73 74 75 76 77 78 78 80 81 81 80 78 77 77 76 75 75 76 76 77 77 77 77 77 78 79 80 82 83 85 87 87 86 86 89 91 92 92 92 92 93 93 93 92 92 92 92 92 92 92 92 92 92 92 92 93 93 94 96 97 98 98 98 98 98 97 97 97 97 96 95 93 90 88 89 89 88 87 85 81 79 79 79 80 82
72 72 72 73 74 75 75 77 79 79 80 78 76 75 75 73 73 74 76 76 76 76 77 77 77 77 79 81 81 83 85 87 87 86 86 88 90 91 92 92 92 92 91 91 91 90 90 90 90 89 89 89 89 89 90 91 92 92 93 94 97 98 99 99 100 101 101 101 101 101 100 100 99 97 97 96 94 91 90 90 88 85 83 82 82 84
69 69 69 71 72 72 72 74 76 77 77 75 73 72 71 71 71 72 74 75 75 74 75 76 77 78 79 81 82 84 86 88 90 89 87 88 89 89 89 89 88 88 87 87 86 86 85 85 85 85 85 85 85 85 86 87 88 89 89 89 91 93 95 96 98 100 101 102 103 103 102 100 99 99 99 99 96 91 89 91 93 92 90 87 86 86
67 67 68 68 69 69 70 71 74 74 73 71 69 68 68 69 70 70 72 74 74 73 74 76 78 79 80 81 83 85 86 88 89 88 86 85 85 85 83 83 82 82 81 81 81 81 81 82 82 82 82 82 82 83 84 85 87 88 88 87 87 86 87 89 90 92 93 95 96 97 98 97 96 95 95 94 92 88 84 84 89 91 91 89 88 87
65 65 65 66 66 67 68 70 72 72 71 68 66 64 65 67 69 70 71 72 72 72 74 76 77 78 79 81 82 83 83 83 83 82 81 80 79 79 78 78 78 78 77 77 77 78 79 80 80 80 80 80 81 81 82 84 86 87 88 89 89 87 87 88 87 86 86 87 88 89 91 92 92 91 90 88 86 82 77 75 77 80 81 82 83 82
62 62 63 63 64 65 65 67 69 71 69 66 63 62 64 66 68 69 70 71 71 72 73 74 75 76 77 78 78 78 78 77 77 77 76 75 76 76 76 76 77 77 77 77 77 78 79 80 80 80 80 80 81 81 82 83 84 84 85 87 88 90 93 94 92 90 89 87 86 87 88 91 92 91 90 86 83 79 76 73 72 74 75 75 77 77
59 60 60 60 61 62 63 65 67 68 66 63 62 62 63 65 66 67 67 68 68 69 70 71 71 72 73 73 74 74 74 74 74 74 74 74 75 75 76 76 77 77 78 78 78 79 80 81 82 81 81 81 82 83 84 85 86 85 85 85 86 89 92 95 96 97 96 95 93 91 90 91 93 93 91 89 85 82 79 76 75 75 75 74 73 73
57 57 58 59 60 61 63 64 65 64 62 61 61 61 61 61 62 63 64 65 65 65 66 67 68 68 69 70 71 72 72 73 73 73 74 74 75 75 76 76 77 78 78 79 79 80 81 83 83 83 83 83 83 84 85 87 88 88 87 87 87 89 91 92 93 95 96 98 99 98 96 95 95 95 95 93 91 88 85 82 80 79 79 79 77 75
55 54 56 59 60 60 61 62 60 60 59 57 58 58 58 59 59 59 61 64 64 64 64 66 66 66 68 70 71 72 72 73 73 74 74 74 74 75 75 76 76 77 78 78 79 80 81 83 84 84 84 84 84 85 86 87 89 90 89 88 89 91 92 92 92 92 93 94 96 98 100 100 100 99 99 99 98 95 92 89 87 85 83 83 83 82
51 51 55 58 58 57 58 56 55 56 56 55 56 57 58 58 59 60 62 63 63 64 64 66 67 67 68 69 70 71 72 72 72 73 73 73 74 74 75 75 75 76 76 77 78 79 80 81 82 83 84 84 84 84 85 86 87 89 89 89 90 91 93 93 93 92 92 92 92 94 97 100 102 103 104 104 103 102 99 96 94 92 91 89 89 88
47 49 54 55 54 55 56 53 52 55 56 56 56 57 57 58 59 60 61 62 63 63 64 65 66 66 67 68 69 69 70 70 71 71 71 72 72 72 73 73 73 74 74 75 76 77 79 80 81 82 83 83 82 82 83 84 85 86 86 87 88 90 91 92 92 93 92 92 92 92 93 96 99 102 105 107 108 107 105 103 101 100 98 97 96 95
46 49 52 52 52 55 56 53 52 55 56 56 57 57 57 58 58 59 60 61 61 62 63 63 64 65 66 67 67 68 68 68 69 70 70 70 70 70 70 71 72 72 73 74 75 77 78 79 80 81 82 81 81 81 81 82 82 82 83 84 85 87 88 88 89 90 91 91 92 92 93 94 95 97 100 103 107 109 109 108 108 106 105 103 103 104
45 48 49 50 52 54 54 52 51 54 56 55 55 56 57 57 58 58 59 60 60 61 62 62 63 64 65 65 66 67 67 66 67 67 68 67 67 68 69 70 72 73 73 74 76 77 78 79 80 81 81 80 80 80 80 79 79 80 81 82 83 84 85 86 86 86 87 88 89 90 91 93 94 95 96 98 102 105 108 110 112 112 112 110 109 111
43 45 46 49 53 53 52 51 52 54 55 53 53 54 56 56 57 58 58 59 60 61 61 61 61 61 62 63 63 63 64 63 63 63 64 65 66 68 70 72 72 73 74 75 76 77 77 78 79 79 79 78 78 78 78 77 77 77 78 80 81 82 83 83 83 83 83 83 84 86 87 90 92 93 95 96 98 100 103 106 109 112 115 116 118 119
43 45 46 48 52 53 52 51 51 54 55 54 53 55 56 56 57 58 58 59 59 60 60 60 59 59 58 57 58 59 60 60 60 62 64 66 68 69 71 72 73 74 74 75 75 75 75 75 76 77 77 77 76 76 75 74 73 73 74 75 76 77 78 79 79 80 79 79 80 81 83 85 87 89 91 93 95 97 99 100 102 105 108 111 115 118
Wind_Direction
275 276 277 280 284 285 281 278 278 281 283 284 284 284 286 286 287 291 293 291 290 284 281 282 283 284 286 289 291 291 291 293 298 297 290 287 287 289 289 287 284 281 278 273 269 269 270 272 272 272 271 272 273 274 274 274 275 275 274 273 274 275 274 274 275 275 274 272 270 269 268 267 264 262 262 264 265 265 264 262 262 263 264 266 266 268
276 277 278 281 282 279 276 277 280 282 282 282 284 285 285 286 288 289 288 286 285 283 284 287 286 285 287 288 288 288 289 292 295 293 289 289 291 293 291 286 280 276 274 271 268 268 272 275 277 277 276 275 274 274 275 275 274 273 272 272 272 271 271 272 272 272 273 272 270 269 268 266 264 264 265 266 266 265 264 264 264 264 264 265 265 266
276 276 278 279 277 276 277 279 280 280 279 280 282 283 284 285 287 286 284 283 282 283 287 289 288 289 290 289 288 286 288 293 293 290 289 292 293 292 289 283 280 278 275 272 270 271 273 274 275 277 278 278 277 277 277 277 276 274 273 271 270 270 271 273 273 273 273 272 270 268 267 267 267 267 267 266 266 265 265 265 264 263 262 262 263 264
274 275 276 276 275 276 278 278 277 277 277 278 279 281 282 284 285 285 284 284 282 284 287 288 290 291 291 291 289 287 289 292 290 287 288 293 293 288 282 277 278 281 279 277 275 272 271 272 274 276 278 280 281 280 281 281 281 281 279 277 275 274 273 274 275 274 272 271 270 269 267 266 266 266 265 265 265 266 266 264 262 260 259 259 260 262
273 273 273 274 274 275 275 275 276 276 276 277 277 278 279 281 282 283 285 285 284 284 286 289 289 289 290 290 289 290 291 290 285 283 286 290 289 284 275 271 274 278 278 279 278 275 274 277 278 279 279 281 283 283 282 283 283 284 283 281 279 277 276 276 275 273 271 270 269 268 266 265 265 264 264 264 265 265 264 262 259 257 257 258 260 263
272 271 272 273 273 273 273 273 274 275 276 276 275 275 277 278 279 280 282 283 284 284 284 286 284 283 284 285 286 289 292 290 284 282 285 285 282 280 275 270 268 269 272 274 274 276 279 281 281 281 280 281 282 283 283 283 283 284 284 283 281 278 276 275 275 274 272 271 270 269 267 265 264 263 262 263 262 261 260 260 259 258 259 261 262 264
272 271 272 272 272 272 272 271 272 273 274 275 274 274 274 275 276 277 279 279 280 282 281 281 279 278 279 280 282 286 288 287 285 286 287 281 276 275 274 272 269 268 272 271 270 276 281 279 279 279 279 280 280 281 282 282 283 283 283 283 281 280 278 276 274 274 273 272 271 270 269 266 264 262 261 259 258 258 258 259 259 260 262 263 265 266
273 272 271 271 270 271 271 272 272 272 273 275 274 273 272 273 274 275 275 276 277 278 278 277 276 276 278 281 281 282 282 281 283 289 290 284 281 280 278 278 276 277 280 276 276 282 281 276 277 278 277 278 279 281 282 282 282 282 282 282 281 280 279 277 276 275 274 274 273 272 271 270 267 264 260 259 258 258 258 259 260 261 263 264 266 267
272 271 270 270 269 270 272 272 271 269 270 272 272 272 273 273 272 273 273 273 274 274 273 273 274 275 277 281 282 282 280 281 285 289 287 286 288 288 286 285 285 286 285 281 282 286 282 276 274 276 277 277 278 279 280 281 281 282 281 280 279 278 277 276 276 275 275 275 275 274 273 272 270 267 264 262 261 260 260 260 260 261 263 265 266 267
272 270 270 269 270 270 271 270 269 269 270 271 271 272 272 272 272 273 272 272 273 272 271 272 275 278 278 277 277 278 279 281 285 286 287 290 291 291 291 290 289 287 283 280 281 282 280 279 276 273 274 275 276 277 278 278 279 279 280 279 278 278 277 276 274 273 272 272 273 273 273 272 270 269 268 267 265 263 262 261 260 261 262 263 264 265
272 271 270 270 271 271 270 270 270 271 271 270 271 271 271 272 273 272 272 272 272 271 272 275 278 280 278 274 274 275 276 279 282 285 288 291 291 292 293 292 290 286 281 279 279 277 276 278 277 275 273 272 274 277 278 279 279 278 278 277 277 277 276 276 274 273 271 270 270 270 270 270 269 270 270 269 268 266 264 262 261 261 260 261 261 263
272 271 270 269 270 271 272 273 272 272 272 272 271 272 272 272 272 272 272 272 272 273 275 277 278 276 273 272 272 272 273 277 283 286 288 289 290 290 290 289 287 284 281 280 279 276 273 272 273 275 274 274 274 275 276 279 281 281 279 277 276 276 275 274 274 273 272 270 269 269 268 268 268 269 269 270 269 267 266 265 264 263 262 261 261 261
272 272 271 270 269 270 272 272 272 272 272 273 273 272 272 272 273 273 273 273 274 277 278 276 275 272 268 268 269 269 271 275 280 284 287 289 289 289 288 286 284 282 280 280 279 278 276 273 271 270 272 274 275 274 274 276 279 280 280 278 276 274 274 274 273 272 272 271 270 269 268 268 268 268 268 269 268 268 267 266 265 265 263 262 261 260
274 272 273 273 271 269 270 272 272 272 271 272 272 273 273 274 274 275 276 278 278 279 278 276 274 270 266 267 267 268 271 272 275 279 283 285 287 287 287 285 284 282 279 278 279 279 279 279 278 275 274 275 275 274 273 274 275 276 277 277 275 273 272 272 271 270 269 269 268 268 268 268 268 268 268 267 267 267 267 267 267 266 264 262 260 258
276 273 272 275 274 272 273 273 273 272 271 271 271 272 273 274 276 279 279 278 277 276 275 275 275 272 271 271 270 269 271 272 274 277 279 282 283 283 283 282 281 280 279 278 278 279 279 280 281 281 279 277 275 276 277 276 274 274 275 276 274 273 271 269 268 268 267 267 266 267 267 268 268 269 268 268 267 267 266 266 266 265 264 262 260 258
276 273 271 273 275 275 275 275 275 274 273 272 272 272 274 275 277 278 277 276 276 275 272 271 272 273 274 274 273 272 271 273 277 279 280 281 280 279 278 277 276 276 278 278 278 278 278 279 279 280 279 278 277 278 280 280 278 277 276 275 273 271 270 269 268 268 268 268 267 267 267 268 268 269 269 268 268 267 267 266 266 265 263 261 260 258
275 274 272 273 274 274 273 273 273 274 275 275 274 275 277 278 278 277 277 277 276 274 272 271 271 272 272 271 271 273 274 275 278 279 279 278 277 275 274 274 275 275 276 277 276 276 276 276 277 277 278 280 280 280 281 280 280 279 276 272 270 269 267 267 267 267 269 270 270 270 269 269 269 269 269 269 268 267 267 268 267 266 263 261 260 258
278 276 274 273 274 274 273 274 274 274 275 276 277 278 280 280 280 279 279 277 274 272 271 271 271 271 271 269 269 271 273 275 276 276 275 274 273 273 272 272 273 273 273 274 274 274 275 275 276 277 278 278 280 280 280 279 279 278 274 266 264 265 264 262 262 263 265 267 268 269 269 269 269 269 269 269 269 269 269 269 268 266 264 261 259 257
280 278 276 273 274 275 274 275 275 276 276 278 280 281 280 279 279 278 277 275 274 272 271 271 270 270 271 272 272 272 271 272 273 273 272 270 270 270 269 269 269 270 271 272 273 274 275 276 277 279 280 280 280 279 278 277 275 275 272 263 260 264 264 260 260 262 264 263 263 264 266 267 268 269 269 269 269 269 270 270 268 267 265 263 260 258
282 282 280 277 275 275 274 274 275 277 279 281 282 280 278 277 277 276 275 275 276 276 276 275 274 272 273 274 273 272 270 269 269 269 269 268 267 266 266 266 266 267 268 270 272 273 275 276 278 279 279 279 279 278 278 277 274 271 268 263 262 268 270 266 264 265 265 263 262 262 263 265 266 267 267 268 268 268 268 268 268 267 265 264 263 262
283 284 284 281 277 276 277 278 279 278 278 279 279 278 278 277 277 276 274 274 276 277 277 277 275 273 273 274 273 270 266 264 264 265 265 264 264 263 263 263 263 265 267 269 271 273 274 275 275 275 276 275 275 275 274 274 273 272 271 268 268 272 274 272 270 268 267 265 264 262 261 262 263 264 265 266 266 267 266 266 265 265 264 265 266 266
282 281 281 280 279 279 280 281 280 279 278 278 277 277 278 278 277 275 273 274 274 273 273 273 273 271 270 269 269 265 261 260 261 261 261 260 260 260 261 263 265 267 270 272 273 274 274 274 272 271 270 270 271 271 270 270 270 270 270 270 270 272 273 273 272 272 271 269 265 263 262 261 260 261 262 263 264 264 264 264 264 264 265 266 267 267
280 279 278 279 281 281 280 279 278 277 278 279 278 279 279 278 276 275 275 276 275 273 273 273 272 273 272 269 266 264 262 261 260 260 260 261 263 264 265 267 269 271 273 274 274 274 273 272 270 268 266 265 265 266 267 268 268 268 267 266 266 268 271 273 274 274 273 271 267 264 262 261 259 258 259 260 261 262 262 263 264 266 267 268 268 268
278 278 279 280 281 280 279 277 277 277 277 277 277 278 278 277 276 276 276 277 275 273 273 274 274 276 277 274 270 266 264 262 261 260 261 263 266 268 270 271 272 272 272 272 272 271 271 269 268 266 264 263 262 263 264 266 267 267 267 265 264 265 267 270 273 274 273 272 270 266 262 260 259 258 257 257 258 259 260 262 263 265 266 267 268 268
278 279 279 279 279 278 278 277 277 276 275 275 275 275 275 275 275 274 273 273 272 271 272 273 273 274 275 273 270 268 267 266 265 265 265 265 267 268 270 271 272 272 271 271 270 269 268 267 266 264 263 262 262 263 265 266 267 267 265 265 264 265 267 269 272 273 273 272 271 268 264 261 259 258 256 256 256 257 257 259 260 263 264 265 267 267
279 277 276 276 276 277 278 277 276 276 275 274 274 273 272 272 272 271 270 269 268 269 268 266 266 268 268 267 266 266 267 269 269 269 268 268 268 269 270 271 271 272 272 271 271 270 268 267 266 265 264 264 265 266 267 268 267 266 265 265 265 266 267 269 271 271 271 270 270 268 265 262 260 258 257 256 256 256 256 256 257 259 260 262 263 265
276 275 275 275 274 275 277 277 277 276 274 273 273 272 271 270 270 270 269 268 269 270 269 267 269 270 269 268 268 269 270 271 271 271 270 270 269 270 270 271 271 271 271 271 271 271 271 270 269 268 267 267 267 268 269 269 268 267 267 266 267 267 268 269 269 269 269 268 267 266 264 261 258 256 255 254 255 255 255 255 256 257 258 259 260 262
276 275 275 276 274 274 275 276 276 276 274 272 272 271 271 271 270 270 269 270 271 271 271 271 273 273 273 273 273 272 272 272 272 271 271 271 271 271 271 271 271 271 271 271 271 272 272 272 271 271 271 271 270 270 270 270 270 269 268 267 266 266 267 268 268 268 268 268 267 265 262 259 256 254 252 251 252 252 253 253 255 257 259 260 260 261
276 276 277 276 274 274 274 275 276 276 274 273 272 271 270 270 270 271 271 272 271 270 271 273 273 273 274 274 273 273 273 273 272 272 272 272 271 271 271 271 271 271 271 271 271 271 271 271 271 272 272 273 273 272 272 272 272 272 271 269 268 266 266 265 266 266 266 266 266 264 262 259 255 253 252 251 251 251 251 252 253 256 260 260 260 259
276 276 277 276 275 275 275 276 276 275 273 272 271 271 272 272 273 273 274 274 273 272 273 274 274 274 274 275 275 275 275 275 275 274 273 272 271 271 271 270 271 271 271 270 270 270 270 271 271 271 272 272 272 273 273 274 274 274 273 272 271 270 269 267 266 266 265 264 263 263 262 259 256 254 252 252 253 253 254 255 256 258 260 260 260 260
276 276 276 276 275 275 275 276 275 273 272 272 271 272 274 276 276 276 275 275 274 274 274 275 276 277 278 279 280 280 279 278 277 275 273 273 272 271 270 270 269 269 269 269 270 271 272 272 273 272 272 271 271 272 272 273 274 274 274 273 273 272 271 270 268 266 264 263 262 262 262 261 259 257 255 254 255 257 258 259 260 261 260 259 259 260
275 275 275 275 274 274 276 276 273 272 271 271 271 274 277 278 278 277 277 276 276 276 276 277 279 280 280 280 279 278 277 276 275 274 273 272 271 271 270 269 268 268 269 270 272 274 275 275 274 273 271 270 270 270 272 273 274 274 274 274 274 273 272 270 269 267 265 263 261 260 260 260 260 259 258 257 257 258 259 261 261 260 259 257 257 258
273 273 273 274 273 274 275 273 272 271 271 270 273 277 278 278 278 278 278 278 277 276 275 275 275 275 275 275 275 275 276 276 276 276 275 274 273 272 270 269 269 270 271 273 275 277 277 276 275 273 272 271 271 271 272 273 273 273 273 273 273 273 272 270 269 267 265 262 260 259 259 260 260 260 260 260 259 258 258 259 260 260 259 257 256 256
273 273 273 274 274 274 274 273 273 272 272 273 276 277 276 276 277 277 278 278 277 277 275 274 273 272 272 273 273 274 275 276 278 279 279 278 277 276 275 275 275 275 275 276 277 277 277 276 275 273 273 273 273 274 274 274 274 273 272 272 272 271 271 270 269 267 264 262 260 258 258 259 260 259 260 260 260 259 257 257 258 259 258 258 257 256
275 274 274 274 274 275 275 274 274 273 274 276 277 276 276 277 277 277 278 278 278 278 277 276 276 275 275 275 274 274 274 275 276 277 279 279 279 279 279 278 279 279 279 279 278 277 277 276 275 274 273 273 273 274 274 273 273 272 271 270 269 269 269 269 268 267 265 263 262 260 258 259 260 261 261 262 261 260 258 256 257 258 257 257 257 257
274 274 273 273 274 275 275 274 274 275 276 277 278 278 278 278 278 279 279 279 279 278 278 277 277 277 277 276 276 276 276 276 276 276 278 279 279 279 279 279 279 279 279 279 279 278 278 277 276 275 274 274 273 273 273 272 271 269 268 267 266 266 266 267 267 267 266 265 265 264 262 262 262 263 263 264 264 263 260 257 256 256 256 256 257 258
272 272 272 272 272 273 274 274 275 276 276 277 278 279 279 278 279 280 279 279 278 278 278 278 278 278 278 278 278 278 277 277 276 277 278 279 280 280 281 281 281 281 281 281 281 281 280 280 279 278 277 275 274 274 273 272 270 269 267 266 265 264 265 265 266 266 266 266 267 267 267 267 267 266 265 266 267 264 259 257 255 255 255 255 256 257
272 272 272 272 272 272 274 275 275 276 277 277 278 278 278 279 280 280 279 278 278 279 280 280 280 280 280 280 280 280 280 280 279 278 279 280 281 282 282 283 283 284 284 283 283 282 282 281 281 280 279 278 277 276 275 273 272 271 269 267 266 265 265 266 266 266 266 266 267 268 269 270 271 270 269 269 269 264 257 255 255 256 256 256 256 257
273 273 273 273 273 274 274 275 276 277 278 279 279 280 280 281 281 281 280 280 280 281 281 282 282 281 281 282 282 282 282 282 282 282 281 282 283 284 284 284 284 284 284 283 283 282 282 281 280 279 279 278 277 276 275 274 274 273 272 271 269 268 267 267 267 266 266 266 267 268 269 270 270 271 270 270 268 264 259 255 255 256 258 258 258 259
274 274 274 274 275 276 276 276 276 277 278 279 280 281 281 281 281 280 281 282 283 282 281 281 282 282 283 283 283 283 284 284 285 285 285 285 285 285 285 285 284 284 283 283 283 283 282 281 281 280 279 278 277 276 274 273 272 272 271 271 271 270 270 269 268 267 266 266 267 267 268 268 267 267 267 266 264 263 261 258 256 257 258 258 258 258
275 275 275 275 276 277 277 277 277 276 277 279 280 281 281 281 280 280 281 282 282 282 281 282 282 282 283 283 283 283 284 285 286 287 287 286 286 286 286 285 285 285 285 284 284 283 283 282 282 281 280 279 278 277 276 274 273 271 269 268 267 267 267 267 267 267 266 266 266 265 265 264 263 262 262 261 260 259 258 257 256 255 255 254 254 254
276 275 275 276 277 277 276 276 277 277 279 280 281 281 281 281 281 282 282 281 281 281 281 281 281 281 281 282 283 284 284 285 285 286 286 286 286 286 286 286 286 286 286 285 285 284 283 282 282 281 281 281 280 279 278 277 275 274 272 270 268 266 265 264 264 264 264 264 264 263 263 262 261 259 258 258 257 256 255 253 252 251 251 250 249 248
276 276 276 277 278 277 276 276 277 280 282 283 282 283 282 282 282 282 281 280 280 280 280 280 280 281 282 282 283 283 284 284 285 285 286 286 286 287 287 287 287 286 286 286 285 284 284 283 282 282 282 281 281 280 280 279 278 276 275 273 272 270 268 266 265 263 263 262 262 261 261 260 259 258 257 256 255 254 253 252 252 252 252 251 249 248
276 276 278 277 276 276 276 277 279 282 283 284 284 283 282 281 281 280 279 279 279 279 279 280 281 281 282 283 283 284 284 285 286 286 286 286 287 287 287 287 287 286 286 286 286 285 285 284 284 283 283 282 282 282 281 280 279 278 277 276 274 272 270 269 268 266 264 263 261 260 259 259 258 257 257 256 255 254 253 251 252 254 255 254 253 251
277 278 278 277 276 276 277 279 282 283 283 283 283 282 281 280 279 279 279 279 280 280 281 281 282 282 283 284 284 285 286 286 287 287 287 287 287 287 287 287 287 287 287 287 287 287 287 286 286 285 285 284 284 283 283 282 281 280 279 277 276 274 273 271 269 268 267 265 263 261 259 258 257 257 257 256 256 255 253 251 251 252 254 256 256 255
278 279 278 277 278 279 280 282 284 283 282 282 281 281 281 281 280 280 280 281 282 283 283 283 284 284 284 285 286 286 287 287 287 287 288 288 288 288 288 288 288 288 289 289 289 289 289 288 288 287 286 285 285 285 284 283 282 282 281 279 278 277 275 274 272 270 269 267 265 263 262 260 258 257 257 257 257 256 255 253 252 252 253 255 257 258
279 279 278 280 282 282 281 282 282 281 281 281 280 280 280 281 281 282 282 283 283 284 284 284 285 285 285 285 286 286 286 287 287 287 288 288 288 289 289 289 290 290 291 291 291 290 290 289 289 288 287 287 286 285 285 284 283 283 282 281 279 278 276 275 274 273 271 269 267 265 263 262 260 259 258 257 257 257 257 255 254 253 253 254 256 258
281 280 281 283 283 282 282 283 282 281 280 280 281 281 281 280 281 282 283 283 284 284 284 285 285 285 286 286 286 287 287 288 288 288 289 289 290 291 292 292 292 293 293 293 292 292 291 291 290 290 289 289 288 287 286 285 284 284 283 282 280 279 277 276 274 273 272 270 269 267 265 263 262 260 259 258 257 257 257 257 256 255 254 254 255 257
285 284 285 285 283 283 284 285 284 283 282 281 282 283 282 282 282 282 283 284 284 285 285 286 286 286 286 286 287 288 288 289 290 291 292 293 294 295 295 295 295 295 295 294 294 293 293 293 292 292 291 290 290 288 287 286 285 284 283 282 281 279 278 277 275 274 272 271 269 268 267 265 263 261 259 258 257 257 257 257 257 256 255 255 256 258
287 286 286 286 285 285 286 287 287 286 285 285 284 284 284 284 284 284 284 284 285 285 286 286 286 287 288 288 289 290 291 292 293 294 296 297 298 297 297 297 296 296 296 296 295 294 294 294 293 293 292 291 290 289 288 288 287 286 285 284 283 281 280 279 277 275 274 272 271 269 268 266 265 263 262 260 258 257 256 256 256 256 256 255 255 257
287 288 288 287 287 288 289 290 290 290 290 289 287 286 286 286 286 286 286 286 286 286 286 286 287 287 288 290 291 292 293 294 294 296 298 299 299 299 299 298 298 298 298 297 297 296 295 294 294 293 293 292 292 292 291 290 289 287 286 284 283 282 281 280 278 276 275 273 272 270 269 267 265 264 263 261 260 258 257 255 254 255 255 256 255 256
Height
5803 5800 5797 5800 5806 5807 5803 5799 5796 5796 5796 5794 5793 5792 5791 5790 5790 5795 5797 5795 5794 5785 5781 5785 5784 5782 5784 5786 5790 5792 5792 5792 5793 5794 5793 5792 5792 5792 5792 5791 5790 5788 5787 5786 5784 5781 5779 5777 5778 5779 5779 5779 5779 5779 5780 5781 5782 5782 5782 5782 5784 5784 5783 5783 5783 5783 5782 5783 5783 5784 5784 5785 5785 5785 5785 5786 5786 5787 5788 5788 5788 5789 5789 5789 5789 5789
5800 5795 5794 5800 5801 5798 5794 5793 5793 5793 5792 5790 5788 5786 5786 5785 5785 5789 5790 5789 5789 5780 5775 5780 5777 5776 5780 5782 5784 5786 5788 5789 5790 5787 5787 5789 5789 5789 5788 5786 5785 5784 5782 5780 5778 5776 5774 5774 5775 5775 5775 5775 5775 5775 5775 5776 5776 5777 5777 5778 5779 5779 5778 5779 5779 5778 5778 5778 5778 5778 5779 5779 5779 5780 5781 5781 5782 5782 5783 5783 5784 5785 5785 5784 5784 5783
5794 5790 5792 5796 5794 5790 5789 5790 5788 5787 5786 5785 5784 5781 5780 5781 5780 5780 5782 5783 5783 5776 5773 5774 5770 5769 5773 5775 5776 5780 5784 5785 5785 5783 5782 5784 5785 5785 5784 5781 5780 5779 5778 5775 5773 5772 5772 5771 5771 5771 5771 5771 5771 5771 5771 5771 5771 5772 5773 5774 5774 5774 5774 5774 5774 5774 5774 5774 5773 5773 5774 5774 5774 5775 5776 5777 5777 5778 5778 5779 5780 5780 5779 5779 5778 5778
5787 5785 5788 5789 5786 5786 5785 5783 5782 5780 5781 5780 5779 5777 5775 5776 5775 5772 5774 5776 5776 5773 5770 5769 5765 5763 5766 5767 5767 5772 5780 5782 5780 5779 5779 5779 5779 5780 5780 5777 5775 5774 5773 5770 5769 5769 5768 5767 5767 5767 5767 5767 5767 5767 5767 5767 5767 5768 5769 5769 5770 5769 5769 5769 5769 5769 5769 5768 5768 5769 5769 5769 5769 5771 5771 5771 5772 5774 5774 5775 5775 5774 5773 5772 5772 5773
5782 5780 5782 5783 5781 5781 5779 5777 5775 5774 5775 5776 5774 5772 5771 5772 5770 5767 5767 5767 5768 5768 5767 5765 5761 5759 5760 5761 5761 5764 5772 5777 5775 5774 5775 5775 5774 5774 5774 5772 5770 5769 5767 5766 5765 5765 5764 5763 5763 5763 5763 5763 5762 5762 5762 5762 5762 5763 5764 5764 5764 5765 5765 5764 5764 5764 5763 5763 5763 5763 5764 5764 5764 5765 5766 5767 5768 5769 5769 5769 5768 5767 5766 5766 5767 5768
5776 5774 5775 5777 5776 5774 5772 5771 5769 5768 5769 5769 5768 5767 5767 5766 5765 5764 5763 5761 5760 5761 5763 5762 5758 5756 5755 5755 5756 5758 5763 5768 5768 5769 5771 5771 5769 5769 5768 5767 5765 5764 5763 5761 5760 5761 5761 5760 5759 5759 5758 5758 5758 5758 5758 5758 5758 5758 5759 5759 5759 5759 5759 5759 5759 5758 5758 5758 5758 5758 5758 5759 5759 5759 5761 5762 5763 5762 5762 5762 5762 5761 5761 5762 5763 5763
5769 5769 5770 5770 5769 5767 5765 5765 5764 5762 5761 5761 5762 5762 5761 5760 5759 5759 5759 5757 5755 5754 5755 5756 5754 5752 5751 5751 5754 5756 5757 5758 5759 5762 5764 5764 5764 5764 5762 5761 5760 5759 5758 5756 5756 5756 5756 5756 5755 5754 5754 5754 5754 5753 5753 5753 5753 5753 5754 5754 5754 5754 5754 5754 5753 5753 5753 5753 5753 5753 5753 5753 5753 5754 5755 5756 5755 5755 5755 5756 5756 5756 5757 5757 5758 5758
5763 5763 5763 5762 5761 5760 5759 5759 5759 5756 5754 5754 5756 5755 5754 5754 5754 5753 5753 5751 5750 5749 5747 5747 5747 5746 5745 5746 5749 5751 5751 5751 5753 5755 5756 5755 5757 5757 5756 5755 5755 5753 5751 5750 5750 5750 5750 5751 5750 5750 5750 5750 5749 5749 5749 5748 5748 5748 5748 5748 5748 5748 5748 5748 5747 5747 5748 5748 5748 5748 5748 5747 5748 5749 5749 5748 5748 5748 5749 5750 5750 5751 5751 5752 5752 5753
5756 5755 5755 5754 5754 5754 5754 5754 5752 5749 5748 5748 5749 5747 5747 5747 5747 5747 5746 5745 5744 5744 5741 5738 5740 5741 5740 5742 5743 5743 5743 5745 5747 5749 5748 5748 5749 5749 5749 5749 5748 5747 5746 5744 5744 5744 5743 5745 5746 5745 5745 5745 5745 5744 5744 5743 5742 5742 5742 5742 5741 5741 5741 5741 5741 5741 5741 5741 5741 5742 5742 5742 5743 5743 5742 5741 5742 5742 5743 5743 5744 5744 5745 5745 5746 5746
5748 5748 5748 5746 5747 5748 5748 5747 5745 5743 5743 5742 5742 5741 5740 5739 5739 5739 5739 5738 5738 5736 5734 5733 5736 5738 5738 5738 5738 5737 5738 5741 5742 5741 5741 5741 5742 5741 5742 5742 5741 5740 5740 5737 5737 5738 5737 5737 5739 5740 5740 5739 5738 5738 5738 5738 5737 5736 5736 5735 5734 5734 5734 5734 5734 5734 5734 5734 5735 5735 5736 5736 5736 5736 5736 5736 5737 5737 5737 5737 5737 5738 5738 5738 5738 5738
5742 5741 5740 5740 5740 5741 5741 5740 5740 5739 5737 5736 5735 5734 5733 5731 5731 5731 5730 5731 5729 5728 5731 5731 5733 5737 5733 5729 5732 5734 5734 5735 5735 5735 5735 5735 5735 5735 5734 5733 5733 5732 5732 5730 5730 5731 5731 5730 5731 5732 5733 5733 5733 5732 5732 5732 5731 5730 5730 5729 5728 5727 5726 5726 5726 5727 5727 5727 5728 5728 5728 5729 5729 5729 5729 5730 5731 5731 5731 5731 5731 5731 5731 5731 5731 5730
5736 5735 5734 5735 5735 5735 5734 5734 5734 5733 5731 5731 5730 5729 5727 5725 5724 5722 5721 5723 5720 5722 5729 5728 5727 5731 5727 5723 5726 5730 5730 5730 5729 5729 5729 5728 5728 5729 5728 5725 5724 5723 5722 5721 5721 5722 5724 5724 5723 5723 5724 5725 5726 5726 5725 5725 5724 5723 5722 5722 5721 5720 5720 5719 5719 5719 5720 5720 5720 5720 5721 5721 5721 5721 5722 5723 5724 5724 5724 5724 5723 5723 5723 5724 5723 5723
5731 5730 5730 5730 5730 5730 5728 5727 5727 5727 5726 5725 5724 5723 5720 5718 5717 5714 5713 5714 5714 5718 5723 5721 5719 5719 5719 5719 5721 5724 5727 5728 5726 5724 5722 5721 5720 5721 5720 5717 5715 5713 5713 5711 5710 5711 5712 5714 5715 5716 5716 5716 5717 5718 5718 5717 5717 5716 5715 5714 5714 5714 5714 5713 5712 5713 5713 5713 5713 5713 5713 5712 5712 5713 5714 5715 5716 5716 5716 5716 5716 5716 5716 5716 5715 5715
5723 5725 5726 5724 5725 5725 5722 5721 5721 5721 5720 5718 5717 5716 5713 5712 5710 5706 5708 5708 5708 5712 5712 5711 5710 5708 5711 5716 5717 5720 5724 5725 5723 5721 5718 5715 5713 5711 5710 5708 5705 5703 5703 5702 5701 5700 5701 5701 5702 5704 5707 5707 5707 5707 5709 5710 5709 5709 5708 5708 5707 5707 5707 5706 5706 5706 5706 5706 5706 5706 5705 5705 5705 5705 5706 5707 5707 5707 5708 5708 5708 5708 5707 5707 5707 5707
5713 5716 5721 5719 5717 5719 5718 5716 5715 5713 5713 5711 5712 5709 5706 5708 5705 5701 5702 5702 5702 5704 5703 5703 5700 5701 5708 5712 5712 5716 5718 5718 5717 5715 5712 5710 5707 5704 5702 5698 5695 5692 5692 5692 5693 5692 5692 5693 5693 5692 5694 5696 5696 5695 5697 5699 5701 5702 5702 5702 5701 5699 5699 5699 5699 5698 5698 5698 5699 5699 5698 5698 5698 5698 5698 5698 5698 5699 5699 5700 5700 5700 5699 5699 5699 5698
5703 5707 5714 5710 5708 5712 5711 5709 5708 5706 5704 5704 5704 5701 5700 5702 5700 5694 5693 5695 5696 5694 5694 5697 5693 5696 5705 5706 5707 5711 5710 5711 5709 5705 5704 5702 5698 5697 5693 5688 5685 5685 5685 5685 5686 5685 5684 5685 5685 5684 5683 5684 5685 5685 5685 5686 5688 5691 5692 5694 5694 5692 5691 5691 5690 5690 5690 5690 5690 5691 5691 5690 5690 5690 5690 5690 5690 5691 5691 5691 5692 5692 5691 5691 5691 5691
5693 5698 5707 5703 5698 5701 5701 5700 5700 5697 5695 5694 5694 5693 5694 5693 5691 5687 5683 5686 5687 5680 5682 5690 5687 5692 5699 5699 5703 5706 5704 5704 5701 5696 5695 5692 5687 5686 5683 5679 5678 5680 5680 5679 5679 5677 5675 5675 5676 5676 5674 5674 5675 5675 5676 5676 5678 5680 5681 5683 5684 5685 5684 5684 5684 5683 5682 5682 5682 5682 5682 5682 5682 5682 5682 5682 5682 5682 5683 5683 5684 5683 5683 5683 5683 5683
5684 5687 5697 5697 5690 5689 5691 5692 5691 5689 5687 5685 5684 5686 5687 5683 5681 5680 5675 5674 5675 5668 5669 5678 5680 5685 5689 5691 5699 5702 5699 5696 5689 5686 5686 5680 5677 5676 5673 5672 5671 5671 5671 5670 5669 5668 5666 5666 5666 5667 5667 5667 5667 5667 5667 5668 5669 5670 5672 5673 5674 5676 5677 5677 5677 5677 5677 5676 5675 5674 5674 5673 5673 5673 5672 5673 5673 5673 5674 5675 5675 5675 5675 5675 5675 5674
5676 5674 5682 5690 5686 5681 5683 5685 5682 5680 5679 5676 5677 5679 5679 5675 5673 5672 5667 5663 5664 5660 5658 5664 5669 5674 5678 5684 5691 5691 5689 5686 5677 5674 5674 5669 5668 5667 5665 5665 5665 5663 5663 5661 5660 5659 5658 5658 5658 5659 5659 5659 5659 5658 5659 5659 5660 5662 5663 5664 5665 5666 5668 5669 5669 5670 5669 5669 5668 5666 5665 5665 5664 5664 5663 5663 5664 5665 5666 5666 5666 5666 5666 5666 5666 5666
5667 5663 5666 5678 5681 5672 5673 5679 5677 5674 5672 5669 5668 5668 5668 5667 5664 5664 5660 5656 5655 5652 5649 5651 5653 5659 5669 5678 5681 5677 5674 5671 5666 5664 5662 5660 5659 5659 5658 5658 5657 5656 5655 5655 5654 5652 5651 5651 5651 5651 5651 5650 5650 5650 5650 5651 5651 5653 5654 5655 5655 5654 5657 5658 5659 5659 5659 5659 5659 5658 5657 5656 5655 5655 5654 5654 5654 5655 5656 5657 5657 5657 5657 5657 5657 5658
5660 5655 5653 5663 5669 5664 5664 5671 5670 5666 5663 5660 5658 5657 5657 5658 5657 5654 5650 5650 5650 5645 5641 5641 5637 5644 5659 5668 5670 5667 5657 5652 5655 5656 5652 5651 5650 5649 5649 5650 5649 5648 5647 5647 5647 5645 5644 5644 5643 5643 5642 5642 5642 5642 5642 5643 5642 5643 5643 5644 5644 5643 5644 5646 5647 5648 5649 5649 5649 5648 5648 5647 5646 5646 5646 5645 5645 5645 5646 5646 5647 5647 5647 5648 5648 5648
5653 5649 5645 5649 5655 5657 5660 5663 5659 5655 5653 5651 5648 5648 5649 5650 5650 5645 5639 5642 5645 5638 5635 5634 5626 5630 5650 5661 5660 5654 5643 5641 5647 5647 5642 5641 5641 5640 5641 5640 5639 5639 5638 5638 5638 5637 5636 5635 5634 5634 5633 5632 5632 5632 5633 5633 5633 5633 5633 5634 5633 5633 5633 5634 5636 5638 5638 5639 5638 5638 5638 5638 5638 5637 5637 5637 5636 5636 5636 5636 5636 5636 5636 5637 5637 5637
5646 5642 5638 5638 5642 5647 5652 5654 5649 5644 5644 5642 5639 5640 5641 5641 5640 5635 5629 5632 5634 5629 5627 5626 5616 5616 5635 5650 5649 5640 5634 5636 5639 5637 5634 5632 5631 5631 5631 5631 5630 5629 5628 5628 5627 5627 5626 5625 5624 5623 5623 5622 5622 5622 5623 5623 5624 5624 5624 5625 5625 5624 5624 5624 5625 5626 5628 5629 5628 5628 5628 5628 5627 5627 5628 5628 5627 5627 5626 5626 5626 5626 5626 5626 5626 5626
5637 5633 5630 5629 5631 5633 5639 5643 5640 5636 5635 5632 5630 5632 5632 5630 5631 5629 5624 5622 5620 5617 5619 5617 5608 5607 5620 5632 5632 5627 5626 5628 5628 5628 5627 5624 5622 5622 5620 5621 5621 5619 5618 5617 5616 5616 5615 5614 5614 5613 5613 5612 5612 5612 5613 5613 5614 5614 5614 5614 5614 5615 5615 5614 5614 5615 5616 5618 5618 5618 5618 5618 5617 5616 5617 5617 5617 5617 5616 5616 5616 5616 5616 5615 5614 5615
5628 5626 5624 5621 5619 5620 5625 5632 5631 5627 5625 5623 5622 5624 5623 5622 5623 5621 5619 5615 5608 5607 5612 5608 5601 5603 5611 5615 5615 5614 5614 5615 5617 5618 5617 5616 5614 5613 5610 5610 5610 5609 5608 5607 5605 5605 5604 5604 5603 5603 5602 5602 5601 5602 5602 5603 5604 5604 5603 5603 5603 5603 5603 5603 5604 5604 5604 5605 5606 5607 5607 5607 5607 5606 5606 5606 5606 5606 5606 5606 5606 5606 5605 5605 5604 5604
5619 5618 5617 5614 5610 5610 5613 5618 5621 5618 5615 5614 5614 5615 5615 5615 5615 5611 5609 5606 5599 5599 5602 5598 5593 5597 5603 5603 5601 5602 5604 5604 5605 5606 5606 5605 5604 5602 5601 5600 5599 5598 5597 5596 5595 5594 5593 5593 5592 5592 5591 5590 5590 5590 5590 5591 5592 5592 5592 5591 5591 5592 5592 5591 5592 5592 5592 5593 5594 5594 5594 5594 5595 5596 5595 5595 5595 5595 5595 5595 5595 5595 5595 5594 5593 5593
5610 5607 5608 5607 5603 5603 5604 5606 5609 5608 5605 5604 5604 5605 5606 5607 5607 5604 5599 5595 5593 5591 5587 5588 5589 5587 5590 5593 5591 5591 5594 5594 5593 5593 5593 5593 5591 5590 5590 5588 5587 5587 5585 5584 5583 5582 5581 5580 5579 5579 5578 5578 5577 5577 5577 5578 5578 5579 5579 5579 5579 5579 5579 5579 5579 5579 5579 5580 5581 5582 5582 5582 5582 5583 5583 5583 5583 5583 5583 5583 5584 5584 5583 5583 5583 5584
5600 5597 5600 5600 5595 5595 5596 5596 5598 5597 5594 5593 5594 5595 5596 5597 5596 5594 5589 5586 5589 5581 5572 5579 5584 5576 5575 5582 5580 5578 5581 5581 5581 5581 5581 5581 5580 5578 5578 5576 5575 5574 5573 5572 5571 5570 5569 5567 5565 5565 5563 5563 5563 5563 5563 5563 5564 5564 5565 5566 5566 5566 5566 5567 5566 5566 5566 5566 5567 5569 5570 5570 5570 5570 5570 5570 5570 5570 5570 5571 5571 5571 5571 5571 5572 5573
5590 5587 5592 5591 5584 5584 5588 5588 5589 5587 5583 5582 5582 5582 5585 5587 5586 5584 5580 5580 5580 5570 5563 5571 5573 5566 5565 5567 5565 5565 5568 5568 5568 5569 5570 5569 5568 5566 5565 5564 5563 5562 5562 5561 5559 5558 5557 5555 5554 5552 5550 5549 5548 5547 5548 5548 5548 5549 5549 5550 5552 5553 5553 5554 5554 5554 5554 5554 5554 5554 5556 5557 5558 5558 5558 5557 5557 5557 5557 5558 5558 5559 5559 5559 5560 5561
5580 5579 5583 5579 5573 5574 5577 5580 5581 5577 5573 5572 5571 5570 5572 5575 5576 5575 5572 5572 5570 5561 5558 5560 5558 5555 5555 5554 5553 5554 5555 5555 5555 5555 5556 5556 5555 5554 5553 5552 5551 5550 5549 5548 5547 5547 5546 5544 5543 5542 5540 5538 5536 5535 5534 5533 5533 5534 5534 5535 5536 5537 5538 5540 5540 5541 5541 5541 5541 5541 5541 5542 5544 5544 5545 5545 5544 5544 5544 5545 5545 5546 5547 5547 5548 5549
5572 5570 5572 5569 5562 5562 5569 5571 5569 5566 5563 5560 5559 5562 5564 5565 5565 5565 5563 5563 5559 5552 5551 5551 5546 5544 5544 5543 5542 5541 5540 5541 5541 5540 5542 5543 5542 5541 5540 5539 5538 5537 5536 5536 5535 5535 5534 5533 5533 5532 5530 5528 5526 5524 5522 5521 5520 5520 5519 5520 5520 5521 5522 5523 5525 5526 5526 5527 5527 5527 5527 5528 5529 5530 5530 5531 5531 5531 5531 5532 5532 5533 5533 5535 5536 5537
5566 5561 5561 5561 5550 5550 5562 5562 5555 5555 5553 5547 5549 5556 5559 5557 5554 5552 5552 5551 5547 5543 5542 5542 5537 5535 5534 5532 5531 5528 5526 5526 5526 5526 5528 5529 5529 5529 5528 5527 5526 5525 5524 5524 5523 5523 5522 5521 5520 5520 5519 5518 5516 5513 5511 5510 5508 5507 5506 5505 5505 5505 5506 5507 5509 5510 5511 5512 5513 5514 5514 5514 5515 5516 5516 5517 5517 5518 5518 5518 5519 5519 5520 5522 5523 5524
5560 5553 5552 5552 5540 5540 5553 5551 5544 5544 5537 5534 5546 5552 5549 5546 5542 5539 5539 5539 5537 5534 5533 5532 5529 5527 5526 5523 5521 5518 5515 5513 5513 5513 5514 5515 5515 5515 5514 5514 5514 5513 5512 5511 5510 5510 5509 5508 5508 5506 5505 5505 5504 5502 5500 5498 5497 5496 5494 5492 5491 5491 5491 5492 5494 5495 5496 5498 5499 5500 5501 5501 5502 5503 5503 5504 5504 5504 5505 5505 5506 5506 5507 5509 5510 5511
5551 5546 5544 5542 5532 5530 5540 5540 5533 5528 5522 5527 5543 5544 5536 5534 5532 5529 5528 5529 5528 5526 5523 5521 5519 5517 5516 5514 5511 5509 5505 5502 5501 5502 5501 5501 5501 5500 5500 5500 5500 5499 5499 5498 5497 5497 5496 5495 5494 5493 5491 5490 5489 5488 5487 5485 5485 5484 5483 5481 5480 5478 5477 5478 5479 5480 5481 5483 5484 5485 5487 5488 5489 5490 5490 5491 5491 5491 5492 5493 5493 5494 5494 5496 5496 5498
5540 5538 5534 5531 5524 5520 5526 5528 5519 5513 5514 5523 5531 5529 5525 5524 5521 5518 5518 5519 5519 5516 5511 5508 5506 5505 5505 5503 5500 5497 5494 5492 5492 5493 5491 5487 5485 5485 5485 5486 5486 5485 5485 5485 5484 5483 5482 5480 5480 5479 5478 5476 5475 5474 5473 5472 5471 5471 5471 5469 5468 5467 5465 5464 5464 5464 5465 5467 5468 5469 5470 5473 5475 5477 5478 5478 5479 5479 5480 5480 5480 5481 5482 5483 5484 5485
5529 5528 5524 5521 5517 5511 5513 5514 5507 5503 5508 5514 5515 5516 5515 5513 5510 5508 5508 5509 5507 5503 5499 5496 5493 5493 5493 5490 5488 5485 5483 5481 5482 5485 5483 5476 5471 5471 5472 5473 5473 5472 5471 5471 5469 5469 5467 5465 5464 5464 5464 5463 5462 5460 5458 5457 5456 5456 5457 5457 5455 5454 5453 5451 5450 5449 5450 5451 5452 5452 5453 5455 5457 5460 5463 5464 5466 5467 5467 5467 5467 5468 5469 5471 5472 5473
5518 5517 5514 5511 5508 5504 5501 5501 5498 5495 5498 5503 5506 5506 5502 5500 5501 5499 5496 5496 5496 5492 5487 5484 5483 5482 5480 5477 5475 5473 5470 5469 5471 5476 5474 5466 5460 5459 5459 5460 5459 5458 5457 5456 5455 5453 5452 5450 5448 5448 5448 5448 5448 5446 5443 5441 5440 5440 5441 5442 5441 5440 5440 5439 5437 5436 5436 5436 5436 5436 5436 5437 5438 5441 5444 5448 5451 5452 5453 5453 5454 5454 5456 5458 5460 5461
5507 5506 5505 5500 5498 5498 5494 5490 5489 5487 5487 5492 5497 5495 5491 5491 5492 5488 5481 5481 5485 5483 5476 5471 5472 5471 5467 5464 5462 5459 5456 5454 5457 5464 5465 5458 5451 5448 5448 5448 5446 5444 5443 5442 5440 5439 5437 5434 5433 5432 5431 5432 5432 5431 5428 5425 5424 5424 5424 5425 5425 5424 5425 5425 5423 5422 5422 5422 5422 5422 5422 5421 5421 5423 5425 5429 5433 5435 5437 5438 5439 5440 5441 5443 5446 5447
5497 5496 5495 5489 5487 5490 5487 5482 5480 5478 5478 5482 5485 5484 5482 5481 5481 5476 5468 5467 5475 5475 5466 5460 5459 5458 5454 5452 5449 5446 5443 5440 5442 5448 5452 5447 5442 5438 5436 5435 5434 5431 5430 5428 5426 5424 5422 5420 5418 5418 5417 5417 5417 5417 5414 5411 5409 5408 5408 5409 5408 5408 5410 5409 5407 5407 5408 5408 5408 5407 5407 5407 5407 5407 5409 5411 5415 5417 5420 5422 5423 5424 5426 5428 5430 5432
5488 5486 5485 5480 5479 5481 5478 5473 5471 5469 5471 5475 5476 5474 5474 5472 5469 5465 5460 5459 5462 5461 5454 5450 5448 5445 5443 5441 5437 5433 5431 5428 5428 5433 5436 5434 5430 5426 5423 5422 5421 5419 5418 5416 5414 5410 5408 5406 5405 5404 5404 5404 5403 5402 5400 5398 5396 5394 5395 5394 5393 5394 5394 5391 5390 5391 5392 5393 5393 5393 5393 5393 5393 5394 5395 5396 5398 5400 5402 5405 5407 5409 5410 5412 5415 5417
5479 5477 5474 5472 5472 5472 5468 5464 5460 5459 5464 5469 5468 5466 5465 5462 5457 5455 5454 5452 5450 5447 5444 5441 5438 5435 5433 5429 5426 5424 5423 5420 5419 5420 5422 5421 5418 5415 5412 5410 5409 5408 5406 5405 5403 5400 5396 5394 5392 5391 5391 5390 5388 5387 5386 5383 5381 5381 5382 5380 5380 5382 5379 5374 5374 5376 5377 5378 5379 5379 5379 5379 5379 5380 5381 5382 5383 5384 5387 5389 5391 5393 5395 5396 5398 5401
5470 5467 5465 5465 5465 5462 5459 5455 5449 5450 5457 5461 5459 5458 5456 5451 5447 5447 5445 5442 5438 5437 5435 5432 5428 5425 5423 5420 5418 5416 5414 5413 5412 5410 5410 5409 5407 5404 5403 5400 5398 5396 5395 5392 5391 5388 5384 5381 5380 5379 5378 5377 5375 5373 5371 5367 5366 5367 5367 5366 5367 5367 5362 5359 5360 5361 5361 5363 5365 5365 5365 5365 5365 5365 5366 5368 5368 5369 5372 5374 5374 5376 5378 5380 5382 5384
5461 5457 5457 5459 5457 5452 5449 5446 5443 5444 5450 5451 5449 5449 5447 5441 5438 5436 5433 5430 5429 5428 5425 5421 5419 5418 5414 5411 5410 5407 5405 5405 5403 5401 5400 5399 5397 5395 5393 5390 5387 5385 5383 5380 5378 5376 5371 5367 5367 5366 5366 5365 5363 5360 5357 5352 5350 5351 5351 5352 5353 5349 5344 5343 5345 5344 5345 5348 5350 5350 5351 5351 5351 5351 5351 5353 5353 5353 5356 5359 5359 5360 5362 5364 5366 5369
5452 5450 5450 5451 5448 5443 5439 5439 5440 5440 5441 5441 5439 5438 5436 5432 5429 5425 5421 5419 5419 5419 5416 5413 5411 5410 5407 5403 5400 5398 5397 5396 5394 5392 5390 5388 5387 5385 5382 5379 5376 5373 5370 5368 5366 5363 5359 5354 5353 5353 5353 5353 5351 5347 5343 5338 5335 5335 5336 5337 5335 5330 5327 5328 5328 5328 5330 5332 5333 5335 5336 5335 5335 5336 5336 5337 5337 5337 5340 5344 5344 5345 5347 5349 5351 5354
5445 5445 5442 5440 5439 5435 5431 5434 5437 5433 5431 5432 5430 5427 5424 5422 5421 5417 5412 5410 5410 5410 5409 5405 5403 5402 5399 5394 5391 5390 5388 5386 5384 5382 5380 5378 5376 5375 5372 5369 5365 5361 5359 5356 5354 5351 5346 5342 5340 5339 5339 5339 5338 5333 5329 5325 5320 5318 5319 5320 5316 5311 5309 5311 5311 5312 5314 5315 5316 5318 5318 5318 5319 5320 5320 5320 5320 5321 5324 5327 5329 5330 5332 5335 5336 5339
5440 5439 5432 5429 5431 5428 5425 5430 5431 5424 5422 5423 5421 5418 5415 5412 5411 5409 5405 5403 5402 5402 5400 5397 5394 5393 5391 5387 5384 5382 5379 5377 5374 5372 5370 5367 5366 5364 5361 5358 5355 5351 5348 5345 5343 5339 5335 5331 5328 5326 5324 5325 5325 5320 5315 5311 5306 5303 5302 5302 5299 5294 5291 5292 5293 5295 5297 5298 5300 5301 5300 5301 5302 5303 5303 5304 5304 5304 5307 5311 5312 5314 5316 5319 5321 5324
5435 5431 5423 5422 5424 5419 5417 5424 5424 5416 5413 5414 5411 5410 5409 5405 5402 5401 5397 5395 5395 5393 5391 5389 5385 5383 5381 5378 5375 5373 5370 5368 5364 5362 5361 5358 5356 5354 5351 5347 5344 5342 5338 5335 5331 5327 5323 5319 5316 5313 5310 5310 5310 5307 5301 5297 5294 5290 5287 5284 5281 5277 5274 5274 5275 5276 5278 5280 5282 5283 5283 5283 5284 5286 5287 5288 5288 5289 5290 5293 5295 5296 5299 5302 5305 5308
5427 5423 5418 5417 5416 5410 5409 5416 5415 5407 5404 5405 5403 5402 5401 5398 5396 5394 5390 5388 5387 5384 5382 5381 5377 5375 5372 5369 5366 5364 5362 5359 5355 5352 5351 5349 5347 5344 5341 5337 5334 5331 5329 5325 5320 5315 5311 5307 5303 5300 5297 5295 5295 5292 5287 5284 5282 5277 5272 5268 5264 5260 5257 5257 5258 5258 5259 5261 5262 5263 5264 5265 5265 5267 5269 5270 5271 5272 5273 5275 5277 5278 5281 5286 5288 5290
5418 5415 5413 5409 5405 5403 5404 5406 5403 5396 5395 5399 5398 5393 5390 5389 5389 5387 5383 5381 5379 5376 5374 5372 5369 5366 5363 5360 5357 5354 5353 5351 5347 5343 5341 5340 5338 5334 5330 5326 5323 5320 5317 5313 5309 5304 5299 5295 5290 5286 5283 5281 5279 5276 5273 5271 5268 5264 5258 5252 5248 5244 5241 5241 5241 5240 5241 5243 5243 5243 5245 5245 5245 5247 5249 5251 5253 5254 5256 5259 5260 5260 5263 5269 5272 5273
5410 5408 5407 5400 5395 5396 5397 5398 5394 5387 5386 5391 5390 5385 5382 5381 5380 5378 5376 5374 5371 5368 5366 5364 5361 5358 5354 5351 5348 5346 5344 5343 5340 5335 5333 5332 5329 5324 5320 5316 5312 5309 5306 5301 5297 5293 5288 5283 5278 5273 5270 5268 5265 5261 5258 5256 5254 5250 5244 5238 5233 5229 5226 5225 5225 5224 5225 5226 5226 5226 5226 5226 5226 5228 5229 5231 5234 5236 5239 5242 5245 5244 5246 5251 5256 5257
5402 5400 5399 5392 5387 5388 5390 5390 5386 5379 5377 5380 5380 5377 5375 5374 5371 5369 5367 5365 5362 5360 5358 5355 5353 5351 5348 5344 5341 5338 5336 5334 5332 5328 5326 5324 5320 5315 5310 5306 5301 5297 5294 5289 5284 5280 5276 5272 5267 5262 5258 5255 5252 5248 5244 5242 5239 5235 5230 5224 5219 5215 5212 5210 5208 5207 5209 5211 5210 5209 5209 5207 5208 5210 5210 5211 5214 5216 5218 5223 5227 5230 5231 5234 5237 5240